[Iaude] MPEC T159: 2023 TV5 [a=2.37,e=0.59,i=1.0,H=25.6]
    mpec at marsden.cfa.harvard.edu 
    mpec at marsden.cfa.harvard.edu
       
    Wed Oct 11 13:17:30 EDT 2023
    
    
  
M.P.E.C. 2023-T159                             Issued 2023 October 11, 17:16 UT
     The Minor Planet Electronic Circulars contain information on unusual
         minor planets, routine data on comets and natural satellites,
         and occasional editorial announcements.  They are published
    on behalf of Division F of the International Astronomical Union by the
          Minor Planet Center, Smithsonian Astrophysical Observatory,
                          Cambridge, MA 02138, U.S.A.
			  
             Prepared using the Tamkin Foundation Computer Network
                              MPC at CFA.HARVARD.EDU
            URL https://www.minorplanetcenter.net/    ISSN 1523-6714
                                    2023 TV5                                    
Observations:
     K23T05V*1C2023 10 09.41597804 06 03.967+28 04 08.40         20.79GVET159G96
     K23T05V 1C2023 10 09.42222604 06 02.358+28 03 57.89         22.28GVET159G96
     K23T05V 1C2023 10 09.42851904 06 00.828+28 03 47.77         20.94GVET159G96
     K23T05V 1C2023 10 09.43485804 05 59.298+28 03 37.26         20.95GVET159G96
     K23T05V KC2023 10 09.48273604 05 47.497+28 02 14.03         21.30GVET159I52
     K23T05V KC2023 10 09.48670104 05 46.547+28 02 06.94         21.16GVET159I52
     K23T05V KC2023 10 09.49463004 05 44.689+28 01 54.55         19.89GVET159I52
     K23T05V KB2023 10 09.98004004 04 28.34 +27 48 17.3          20.7 GVET159I93
     K23T05V KB2023 10 09.98972204 04 26.32 +27 48 05.5          21.3 GVET159I93
     K23T05V KB2023 10 09.99796504 04 24.58 +27 47 54.1          20.6 GVET159I93
     K23T05V KC2023 10 10.29908 04 03 33.04 +27 40 45.9          21.4 VqET159734
     K23T05V KC2023 10 10.31009 04 03 30.69 +27 40 31.0          21.8 VqET159734
     K23T05V KC2023 10 10.32079 04 03 28.41 +27 40 17.0          21.1 VqET159734
     K23T05V KC2023 10 10.32997704 03 25.34 +27 40 05.2          21.4 VuET159H21
     K23T05V KC2023 10 10.33559204 03 24.14 +27 39 57.2          21.5 VuET159H21
     K23T05V KC2023 10 10.34120704 03 22.90 +27 39 49.9          21.6 VuET159H21
     K23T05V KC2023 10 10.34681904 03 21.71 +27 39 41.5          21.4 VuET159H21
     K23T05V KC2023 10 11.35392804 00 47.63 +27 16 58.4          21.8 VuET159H21
     K23T05V KC2023 10 11.35673404 00 47.07 +27 16 54.8          21.0 VuET159H21
Observer details:
734 Farpoint Observatory, Eskridge.  Observers D. Cromer, G. Hug, D. Goodin,
    R. Valentine.  Measurer G. Hug.  0.69-m f/3.54 reflector + CCD.
G96 Mt. Lemmon Survey.  Observer K. W. Wierzchos.  Measurers E. C. Beshore, D.
    Fay, J. B. Fazekas, D. C. Fuls, A. R. Gibbs, A. D. Grauer, H. Groeller, J.
    K. Hogan, R. A. Kowalski, S. M. Larson, G. J. Leonard, D. Rankin, R. L.
    Seaman, F. C. Shelly, K. W. Wierzchos.  1.5-m reflector + 10K CCD.
H21 Astronomical Research Observatory, Westfield.  Observer R. Holmes.
    Measurers T. Linder, R. Holmes, L. Horn.  0.81-m f/4.0 astrograph + CCD.
I52 Steward Observatory, Mt. Lemmon Station.  Observer J. B. Fazekas.
    Measurers E. C. Beshore, D. Fay, J. B. Fazekas, D. C. Fuls, A. R. Gibbs,
    A. D. Grauer, H. Groeller, J. K. Hogan, R. A. Kowalski, S. M. Larson, G.
    J. Leonard, D. Rankin, R. L. Seaman, F. C. Shelly, K. W. Wierzchos.  1.0-m
    prime focus + CCD.
I93 St Pardon de Conques.  Observer F. Losse.  0.40-m f/3.7 reflector + CMO.
Orbital elements:
2023 TV5                                                 Earth MOID = 0.0041 AU
Epoch 2023 Sept. 13.0 TT = JDT 2460200.5                Bell                    
M   0.29771              (2000.0)            P               Q                  
n   0.26930895     Peri.  350.19295     +0.95978743     +0.28072127             
a   2.3748464      Node   353.50285     -0.25640432     +0.87383391             
e   0.5915691      Incl.    0.96818     -0.11430184     +0.39700109             
P   3.66           H   25.60          G   0.15           U   9                  
Residuals in seconds of arc
231009 G96  0.2+  0.2-    231009 I93  1.5+  1.0-    231010 H21  0.1-  0.1-
231009 G96  0.6-  0.4-    231009 I93  0.9+  0.2-    231010 H21  0.5-  0.5+
231009 G96  0.2-  0.1-    231009 I93  0.4+  0.8-    231010 H21  0.4-  0.0
231009 G96  0.3+  0.0     231010 734  0.5+  0.4+    231011 H21  0.3+  0.2-
231009 I52  0.3-  0.3-    231010 734  0.0   0.1-    231011 H21  0.1-  0.3-
231009 I52  0.1-  0.3-    231010 734  0.2-  0.1+
231009 I52  0.6+  1.6+    231010 H21  0.1-  0.0
Ephemeris:
2023 TV5                 a,e,i = 2.37, 0.59, 1                   q = 0.9700
Date    TT    R. A. (2000) Decl.     Delta      r    Elong.  Phase     V
2023 09 11    15 18 45.9 -20 12 54   0.09640 0.9700    64.9   109.9    24.6
...
2023 09 26    14 14 37.9 -04 55 58   0.01722 0.9882    31.7   147.8    24.8
...
2023 10 04    04 38 26.7 +32 39 50   0.02902 1.0141   117.0    61.5    20.1
...
2023 10 10    04 04 18.9 +27 48 48   0.06064 1.0398   131.3    46.2    21.4
2023 10 11    04 01 39.3 +27 25 05   0.06598 1.0446   132.9    44.4    21.5
2023 10 12    03 59 18.5 +27 04 21   0.07134 1.0495   134.5    42.7    21.6
...
2023 10 18    03 48 51.2 +25 36 17   0.1040  1.0815   143.1    33.6    22.3
...
2023 10 26    03 38 54.0 +24 20 45   0.1494  1.1300   153.5    23.2    22.8
...
2023 11 10    03 24 49.6 +22 37 40   0.2461  1.2344   171.5     6.8    23.5
M. P. C. Staff               (C) Copyright 2023 MPC           M.P.E.C. 2023-T159
    
    
More information about the Iaude
mailing list